| time (UTC) | temp F | wind direction | speed knots | gust knots | rain 1hr in | rain 24hr in | rain mn in | humidity % | barometer mb |
| 20260906044547 | 66 | 84 | 13.9 | 23.5 | 0.00 | 0.00 | 0.00 | 65 | 1024.1 |
| 20260906040114 | 67 | 133 | 16.5 | 25.2 | 0.00 | 0.00 | 0.00 | 64 | 1023.9 |
| 20260906031536 | 67 | 82 | 15.6 | 28.7 | 0.00 | 0.00 | 0.00 | 65 | 1023.5 |
| 20260906030034 | 67 | 73 | 16.5 | 27.8 | 0.00 | 0.00 | 0.00 | 65 | 1023.4 |
| 20260906021537 | 68 | 86 | 19.1 | 33.0 | 0.00 | 0.00 | 0.00 | 64 | 1022.9 |
| 20260906020039 | 68 | 125 | 13.9 | 26.9 | 0.00 | 0.00 | 0.00 | 63 | 1023.2 |
| 20260906013036 | 68 | 62 | 13.9 | 22.6 | 0.00 | 0.00 | 0.00 | 62 | 1023.2 |
| 20260906004536 | 69 | 76 | 13.9 | 26.9 | 0.00 | 0.00 | 0.00 | 61 | 1022.9 |
| 20260906003037 | 68 | 124 | 13.0 | 24.3 | 0.00 | 0.00 | 0.00 | 62 | 1023.3 |
| 20260905230039 | 69 | 104 | 12.2 | 21.7 | 0.00 | 0.00 | 0.00 | 61 | 1023.1 |
| 20260905221539 | 70 | 77 | 14.8 | 23.5 | 0.00 | 0.00 | 0.00 | 62 | 1023.1 |
| 20260905214546 | 70 | 100 | 13.0 | 21.7 | 0.00 | 0.00 | 0.00 | 62 | 1023.0 |
| 20260905194544 | 70 | 119 | 10.4 | 16.5 | 0.00 | 0.00 | 0.00 | 65 | 1022.5 |
| 20260905184553 | 71 | 88 | 10.4 | 16.5 | 0.00 | 0.00 | 0.00 | 64 | 1021.9 |
| 20260905181538 | 72 | 83 | 9.6 | 16.5 | 0.00 | 0.00 | 0.00 | 64 | 1021.5 |
| 20260905173056 | 73 | 104 | 11.3 | 17.4 | 0.00 | 0.00 | 0.00 | 63 | 1021.1 |
| 20260905154535 | 83 | 286 | 3.5 | 7.8 | 0.00 | 0.00 | 0.00 | 57 | 1020.4 |
| 20260905141537 | 85 | 192 | 4.3 | 11.3 | 0.00 | 0.00 | 0.00 | 57 | 1020.3 |
| 20260905133040 | 85 | 254 | 4.3 | 7.8 | 0.00 | 0.00 | 0.00 | 54 | 1020.3 |
| 20260905123045 | 86 | 216 | 7.0 | 12.2 | 0.00 | 0.00 | 0.00 | 48 | 1020.6 |
| 20260905114539 | 86 | 203 | 5.2 | 9.6 | 0.00 | 0.00 | 0.00 | 43 | 1020.5 |
| 20260905104540 | 83 | 240 | 1.7 | 6.1 | 0.00 | 0.00 | 0.00 | 44 | 1020.7 |
| 20260905090037 | 83 | 340 | 1.7 | 6.1 | 0.00 | 0.00 | 0.00 | 37 | 1020.8 |
| 20260905080037 | 78 | 84 | 3.5 | 7.0 | 0.00 | 0.00 | 0.00 | 42 | 1020.2 |
| 20260905064537 | 76 | 179 | 1.7 | 6.1 | 0.00 | 0.00 | 0.00 | 37 | 1019.6 |
| 20260905054602 | 74 | 184 | 1.7 | 4.3 | 0.00 | 0.00 | 0.00 | 37 | 1019.7 |